Location: Freiburg+im+Breisgau
(48.0359°N, 7.8195°E)
Time: 06:27:07
(UTC+01:00)

ISS - Pass Details

Date: 06 January 2018
Orbit: 402 x 407 km, 51.6° (Epoch: 18 January)

Event Time Altitude Azimuth Distance (km) Brightness Sun altitude
Exits shadow 06:46:20 29° 313° (NW) 778 -2.9 -14.6°
Maximum altitude 06:47:32 43° 4° (N) 590 -3.2 -14.4°
Drops below altitude 10° 06:50:42 10° 77° (ENE) 1,470 -0.1 -13.9°
Sets 06:52:51 0° 85° (E) 2,331 1.3 -13.6°
